Louisville, KY

4:03 PM EST on December 02, 2016 (GMT -0500)
Bowman

Weather History for KLOU - December, 2011

Change the Weather History Date:

Sunday, December 25, 2011

  Actual Average Record
Temperature  
Mean Temperature 42 °F 36 °F  
Max Temperature 54 °F 43 °F 66 °F (1982)
Min Temperature 29 °F 28 °F -7 °F (1983)
Degree Days  
Heating Degree Days 23 30  
Month to date heating degree days 555 682  
Since 1 July heating degree days 1250 1486  
Cooling Degree Days 0 0  
Month to date cooling degree days 0 0  
Year to date cooling degree days 1725 1444  
Moisture  
Dew Point 28 °F    
Average Humidity 64    
Maximum Humidity 92    
Minimum Humidity 35    
Precipitation  
Precipitation 0.00 in 0.13 in 2.09 in (1987)
Month to date precipitation 4.37 3.27  
Year to date precipitation 69.02 44.80  
Sea Level Pressure  
Sea Level Pressure 30.30 in    
Wind  
Wind Speed 7 mph (WSW)    
Max Wind Speed 17 mph    
Max Gust Speed 23 mph    
Visibility 10 miles    
Events      
T = Trace of Precipitation, MM = Missing Value Source: NWS Daily Summary

Daily Weather History Graph

Daily Weather History Graph

Search for Another Location

Airport or City:

Trip Planner

Search our weather history database for the weather conditions in past years. The results will help you decide how hot, cold, wet, or windy it might be!

Date:

Astronomy

Dec. 25, 2011 Rise Set
Actual Time 7:57 AM EST 5:28 PM EST
Civil Twilight 7:27 AM EST 5:57 PM EST
Nautical Twilight 6:54 AM EST 6:30 PM EST
Astronomical Twilight 6:22 AM EST 7:03 PM EST
Moon 8:35 AM EST (12/25) 6:47 PM EST (12/25)
Length of Visible Light 10h 29m
Length of Day
9h 30m
New Moon, 1% of the Moon is Illuminated
Dec 25
New Moon
Jan 1
First Quarter
Jan 9
Full
Jan 16
Last Quarter
Jan 23
New

Hourly Weather History & Observations

Time (EST) Temp. Windchill Dew Point Humidity Pressure Visibility Wind Dir Wind Speed Gust Speed Precip Events Conditions
12:53 AM 30.9 °F - 28.0 °F 89% 30.38 in 9.0 mi Calm Calm - N/A   Clear
1:53 AM 30.9 °F - 28.0 °F 89% 30.36 in 7.0 mi Calm Calm - N/A   Clear
2:53 AM 32.0 °F 28.7 °F 28.0 °F 85% 30.36 in 9.0 mi South 3.5 mph - N/A   Clear
3:53 AM 32.0 °F - 28.0 °F 85% 30.35 in 10.0 mi Calm Calm - N/A   Clear
4:53 AM 30.9 °F 27.5 °F 28.0 °F 89% 30.33 in 10.0 mi South 3.5 mph - N/A   Clear
5:53 AM 32.0 °F - 28.0 °F 85% 30.32 in 9.0 mi Calm Calm - N/A   Clear
6:53 AM 30.0 °F 26.5 °F 28.0 °F 92% 30.31 in 7.0 mi South 3.5 mph - N/A   Clear
7:53 AM 30.0 °F - 27.0 °F 88% 30.31 in 10.0 mi Calm Calm - N/A   Clear
8:53 AM 30.0 °F - 28.0 °F 92% 30.32 in 7.0 mi Calm Calm - N/A   Clear
9:53 AM 37.9 °F 35.5 °F 30.0 °F 73% 30.32 in 10.0 mi SW 3.5 mph - N/A   Clear
10:53 AM 43.0 °F 38.2 °F 30.0 °F 60% 30.33 in 10.0 mi WSW 8.1 mph - N/A   Clear
11:53 AM 46.4 °F 41.5 °F 30.2 °F 53% 30.29 in 10.0 mi SSW 10.4 mph - N/A   Clear
12:53 PM 50.0 °F - 28.9 °F 44% 30.26 in 10.0 mi WSW 11.5 mph 19.6 mph N/A   Clear
1:53 PM 51.8 °F - 26.6 °F 38% 30.21 in 10.0 mi SW 16.1 mph 21.9 mph N/A   Clear
2:53 PM 53.1 °F - 28.0 °F 38% 30.20 in 10.0 mi WSW 13.8 mph - N/A   Clear
3:53 PM 53.6 °F - 28.4 °F 38% 30.20 in 10.0 mi WSW 15.0 mph 18.4 mph N/A   Clear
4:53 PM 53.1 °F - 27.0 °F 37% 30.21 in 10.0 mi WSW 11.5 mph - N/A   Clear
5:53 PM 50.0 °F - 26.6 °F 40% 30.24 in 10.0 mi West 13.8 mph - N/A   Clear
6:53 PM 46.4 °F 42.9 °F 28.4 °F 50% 30.27 in 10.0 mi WNW 6.9 mph - N/A   Clear
7:53 PM 45.0 °F 41.2 °F 28.0 °F 52% 30.31 in 10.0 mi NW 6.9 mph - N/A   Clear
8:53 PM 42.8 °F 38.0 °F 28.4 °F 57% 30.31 in 10.0 mi WNW 8.1 mph - N/A   Clear
9:53 PM 42.1 °F 36.6 °F 28.9 °F 60% 30.35 in 10.0 mi NW 9.2 mph - N/A   Clear
10:53 PM 39.2 °F 33.6 °F 28.4 °F 65% 30.36 in 10.0 mi NW 8.1 mph - N/A   Clear
11:53 PM 37.4 °F 32.8 °F 28.4 °F 70% 30.37 in 10.0 mi West 5.8 mph - N/A   Clear